Showing default

KUIPER-00593, 69278

Orbit data source: Space-Track

KUIPER-00593, 69278 is a payload satellite owned by Kuiper Systems (US) in LEO that was launched on Fri, 29 May 2026 UTC via an ATLAS V 551 launch vehicle from the Air Force Eastern Test Range (AFETR). Payload-class satellites include a variety of spacecraft equipped with specific instruments for various scientific and technological missions. These include communications satellites like Starlink; space stations such as the ISS; scientific satellites like the Hubble; Earth observation satellites from companies like Planet Labs, Umbra, and HawkEye 360; GPS; miniature CubeSats for education and research; and military/defense satellites.

Loading next visibility...
Identifier
69278, 2026-118M
Orbit
LEO
Country
Flag of USUS
Related business
Manufacturer
Kuiper Systems
Mission
Operational spacecraft
Bus & Motor
KUIPER, Unknown motor
Mass
~490 kg wet, ~490 kg dry
Launch date (UTC)
2026-05-29 (3 weeks ago)
Launch vehicle
ATLAS V 551
Launch site
Air Force Eastern Test Range (AFETR)
Object type
Payload
Rocket body
Debris
Shape & HBR
Unknown
Radar Cross Section
Large (>1 m²)

Expand to show TLE details & history
Last TLE update: 21 hours ago

TLE from 21 hours ago
0 KUIPER-00593
1 69278U 26118M   26170.98211329  .00014491  00000-0  38981-3 0  9992
2 69278  51.8718  39.6641 0003710 165.9112 194.1979 15.38112556  4471
Epoch: 2026-06-19T23:34Z
TLE epoch observation values (Epoch: 2026-06-19T23:34:14.588Z)
Latitude
-0.00002°
Longitude
137.90002°
Altitude
454.91 km
Speed
7.639 km/s
True Right ascension
02h 38m 39s
True Declination
0° 00' 00"
Sunlit
Object was in daylight at epoch
Visualization orbit readout
Latitude
Unknown
Longitude
Unknown
Altitude
Unknown
Speed
Unknown
Apparent Right ascension
Unknown
Apparent Declination
Unknown
Sunlit
N/A
Visualization observer readout
Local Sidereal Time
07:16:28
Azimuth
Unknown
Elevation
Unknown
Doppler factor
Unknown
Orbital elements
Apogee altitude
454.692 km
Perigee altitude
449.624 km
Semi-major axis
6,830.295 km
Eccentricity
0.00037
Inclination
51.8718°
RAAN
39.6641°
Arg. of periapsis
165.9112°
True anomaly
194.18748°
Mean anomaly
194.1979°
Eccentric anomaly
194.19269°
Mean motion
3.84489 °/min
Orbital period
93.63 mins
BSTAR
0.00038981
Loading maneuver chart data...
Computing Atmospheric mass density...
Loading historical data...
Loading historical data...
Loading historical data...
Loading historical data...
Loading historical data...
Loading historical data...
Loading historical data...

Documentation

Showing up to 5 results
|